Cloud_Cover
0 0 0 0 0 0 0 0 0 0 0 0 0 0 0 0 0 0 0 0 0 0 25 92 99 100 95 91 52 19 5 5 2 0 1 0 0 6 50 100 100 100 81 41
0 0 0 0 0 0 0 0 0 0 0 0 0 0 0 0 0 0 0 0 4 0 0 0 36 42 100 94 99 19 6 9 5 12 15 5 3 0 10 58 21 4 4 5
0 0 0 0 0 0 0 0 0 0 0 0 0 0 0 0 0 0 0 0 3 97 84 27 0 1 11 46 88 6 55 93 72 64 15 5 5 5 8 62 100 29 1 4
0 0 0 0 0 0 0 0 0 0 0 0 0 0 0 0 0 0 0 0 0 80 98 94 10 5 5 13 8 20 47 34 60 96 50 58 7 70 5 9 42 5 84 3
0 0 0 0 0 0 0 0 0 0 0 0 0 0 0 0 0 0 0 0 1 100 11 80 90 2 0 15 5 0 4 0 40 96 95 65 50 80 5 5 0 4 24 85
0 0 0 0 0 0 0 0 0 0 0 0 0 0 0 0 0 0 0 0 2 89 77 30 76 100 94 15 9 0 0 0 21 71 100 30 100 100 93 16 2 5 5 64
0 0 0 0 0 0 0 0 0 0 0 0 0 0 0 0 0 0 0 0 0 0 0 30 20 0 92 100 24 4 3 0 2 5 40 67 94 70 100 100 5 0 2 9
0 0 0 0 0 0 0 0 0 0 0 0 0 0 0 0 0 0 0 0 0 0 8 71 88 6 5 10 31 6 0 0 5 5 5 99 5 100 32 96 64 4 0 1
0 0 0 0 0 0 0 0 0 0 0 0 0 0 0 3 5 0 2 4 0 3 11 29 77 89 100 11 1 5 1 0 0 5 1 30 79 5 88 100 87 39 1 0
0 0 0 0 0 0 0 0 0 0 0 0 0 0 0 0 0 0 0 0 0 0 4 100 100 100 54 70 2 4 3 0 1 5 69 5 86 6 3 29 6 5 1 0
0 0 0 0 0 0 0 0 0 0 0 0 0 0 0 0 0 0 0 0 0 1 32 82 100 100 5 4 4 83 99 93 2 0 35 1 100 95 4 0 0 4 2 0
0 0 0 0 0 0 0 0 0 0 0 0 0 0 0 0 0 0 0 0 0 39 2 97 100 88 100 3 0 17 100 100 100 3 0 0 57 41 38 46 5 0 4 19
0 0 0 0 0 0 16 0 0 0 0 0 1 0 5 4 0 0 0 0 0 0 0 80 11 76 100 100 95 18 12 88 56 32 1 15 79 100 36 5 6 10 4 67
0 0 0 0 0 0 0 0 3 0 0 0 0 0 0 0 0 0 0 1 3 5 0 0 0 5 18 98 94 51 100 100 97 51 69 82 100 100 100 100 100 100 100 100
0 0 0 0 0 4 0 0 0 0 0 0 0 0 0 0 3 0 0 0 0 0 0 0 0 10 3 5 5 3 54 100 100 100 100 100 100 100 100 100 100 100 100 100
0 0 0 0 1 4 0 0 0 0 0 0 0 0 2 0 0 0 0 2 1 4 3 4 4 0 5 92 36 15 31 95 100 100 94 100 100 100 100 100 100 100 100 100
0 0 5 0 0 0 0 0 0 0 0 0 0 0 0 5 2 0 0 0 3 2 1 84 100 94 100 99 100 84 86 72 100 99 79 100 100 100 100 100 100 100 100 100
0 0 0 0 0 0 0 0 0 0 0 0 0 3 0 0 0 0 0 18 16 24 68 100 100 100 100 82 100 66 100 100 94 100 100 100 100 100 100 100 100 100 100 100
0 0 0 0 0 0 0 0 1 4 0 0 0 0 0 0 0 4 33 5 87 62 100 100 100 100 66 100 96 97 100 100 100 100 100 100 100 100 100 100 100 100 100 100
0 0 4 8 32 5 5 3 7 7 5 0 0 1 5 0 3 30 100 12 82 58 100 100 100 98 42 63 72 62 100 100 100 95 100 95 100 100 100 100 100 100 100 100
0 5 5 66 31 5 27 4 5 100 18 5 1 0 3 10 5 42 100 73 86 100 100 100 100 100 97 100 100 23 74 100 94 14 56 59 94 97 100 100 100 100 100 100
4 4 16 5 18 32 55 36 78 100 100 75 4 0 0 4 43 95 100 100 46 100 100 100 100 100 100 100 90 51 51 32 8 17 8 0 6 28 98 100 100 100 100 100
1 5 5 21 41 26 76 84 92 21 100 74 2 0 0 78 60 100 100 100 89 100 100 100 100 100 100 100 100 42 67 9 6 58 83 8 7 3 17 19 50 35 24 35
5 15 5 5 17 87 100 65 100 96 62 33 5 2 0 93 56 100 100 100 100 100 100 100 100 100 100 99 100 59 16 6 6 2 5 5 87 61 54 47 100 100 100 100
59 11 98 94 93 22 77 100 68 65 64 54 5 1 1 13 100 100 100 100 100 100 100 100 100 100 100 100 94 62 45 76 5 5 8 5 5 6 83 100 98 100 91 100
24 7 14 5 77 98 100 54 73 26 30 1 4 17 9 30 100 100 100 100 100 100 100 100 100 100 100 100 100 100 100 94 67 16 100 100 100 70 67 42 20 95 90 100